Flag for Switzerland Weather past 2 weeks in Küssnacht, Schwyz, Switzerland

Now
69 °F

Overcast.


Feels Like: 69 °F
Forecast: 39 / 54 °F
Wind: 24 mph from Southeast

Location: Altdorf

Current Time: Apr 26, 2015 at 5:59:51 PM

Latest Report: Apr 26, 2015 at 5:00 PM


Visibility: 16 mi

Pressure: 29.63 "Hg

Humidity: 36%

Dew point: 41 °F

Location of KüssnachtLocation

Historic Weather in Küssnacht — Graph

°F

Küssnacht temperature yesterday

Maximum temperature yesterday: 65 °F (at 2:00 PM)
Minimum temperature yesterday: 43 °F (at 2:00 AM)
Average temperature yesterday: 57 °F

Past Weeks' High & Low Weather Summary

 TemperatureHumidityPressure
High70 °F (Apr 15, 5:00 PM)95% (Apr 19, 4:00 AM)30.50 "Hg (Apr 19, 4:00 AM)
Low34 °F (Apr 19, 6:00 AM)27% (Apr 14, 4:00 PM)29.67 "Hg (Apr 26, 4:00 PM)
Average53 °F67%30.15 "Hg
* Reported Apr 11 4:00 PM — Apr 26 4:00 PM, Küssnacht, Weather by CustomWeather, © 2015

Note: Actual official high and low records may vary slightly from our data, if they occured in-between our weather recording intervals... More about our weather records

Advertising

Küssnacht weather history for previous 24 hours

 ConditionsComfort  
Time TempWeatherWind HumidityBarometerVisibility
4:00 PM
Sun, Apr 26
66 °FMild.10 mph56%29.67 "HgN/A
3:00 PM65 °FMild.14 mph59%29.71 "HgN/A
2:00 PM64 °FPartly sunny.9 mph62%29.73 "Hg16 mi
1:00 PM64 °FMild.6 mph61%29.77 "HgN/A
12:00 PM62 °FMild.6 mph60%29.80 "HgN/A
11:00 AM59 °FPartly sunny.3 mph72%29.83 "Hg16 mi
10:00 AM56 °FCool.5 mph76%29.85 "HgN/A
9:00 AM55 °FCool.3 mph83%29.86 "HgN/A
8:00 AM51 °FOvercast.2 mph91%29.88 "Hg12 mi
7:00 AM49 °FCool.2 mph91%29.89 "HgN/A
6:00 AM49 °FCool.3 mph94%29.91 "HgN/A
4:00 AM51 °FCool.2 mph93%29.93 "HgN/A
3:00 AM53 °FCool.2 mph90%29.92 "HgN/A
2:00 AM53 °FOvercast.2 mph89%29.94 "Hg9 mi
1:00 AM53 °FCool.6 mph90%29.95 "HgN/A
12:00 AM54 °FCool.5 mph85%29.96 "HgN/A
11:00 PM
Sat, Apr 25
58 °FOvercast.15 mph70%29.91 "Hg12 mi
10:00 PM58 °FCool.6 mph70%29.88 "HgN/A
9:00 PM58 °FCool.6 mph72%29.87 "HgN/A
8:00 PM58 °FOvercast.3 mph73%29.85 "Hg11 mi
7:00 PM59 °FCool.3 mph70%29.86 "HgN/A
6:00 PM61 °FCool.1 mph68%29.87 "HgN/A
5:00 PM62 °FOvercast.6 mph63%29.86 "Hg12 mi
Weather by CustomWeather, © 2015

See weather overviewHow to use our weather pages